Location: Ammerl�gen
(47.2167°N, 9.6000°E)
Time: 16:17:37
(UTC+00:00)

Exosat Rocket - Pass Details

Date: 21 April 2021
Orbit: 760 x 2515 km, 72.3° (Epoch: 06 May)

Event Time Altitude Azimuth Distance (km) Brightness Sun altitude
Rises 18:59:38 0° 334° (NNW) 4,124 8.2 -7.2°
Reaches altitude 10° 19:02:40 10° 335° (NNW) 2,931 7.4 -7.6°
Maximum altitude 19:09:10 87° 65° (ENE) 880 3.8 -8.6°
Drops below altitude 10° 19:14:16 10° 155° (SSE) 2,325 5.5 -9.4°
Enters shadow 19:15:07 - 155° (SSE) 2,664 5.8 -9.5°
